User: anonymous   Login
Location: Lawrence
(38.9720°N, 95.2350°W)
Time: 08:52:25
(UTC-05:00)
Language:

JAS-1B - Orbit

View from above orbital plane
View from above orbital plane
View from above satellite
View from above satellite

Ground track
Ground track

The orbit data is extracted from the following two-line orbital elements,

1 20480U 90013C   17234.81949697 -.00000008 +00000-0 +61344-4 0  9998
2 20480 099.0644 355.5496 0539486 240.0540 114.5954 12.83416651290226
Epoch (UTC): 22 August 2017 19:40:04
Eccentricity: 0.0539486
inclination: 99.0644°
perigee height: 912 km
apogee height: 1743 km
right ascension of ascending node: 355.5496°
argument of perigee: 240.0540°
revolutions per day: 12.83416651
mean anomaly at epoch: 114.5954°
orbit number at epoch: 29022

The dashed part of the orbit path shows where the satellite is in the earth's shadow,  

DLR